User: anonymous   Login
Location: Solon
(41.3849°N, 81.4081°W)
Time: 17:29:22
(UTC-04:00)
Language:

CZ-2C R/B - Orbit

View from above orbital plane
View from above orbital plane
View from above satellite
View from above satellite

Ground track
Ground track

The orbit data is extracted from the following two-line orbital elements,

1 28480U 04046B   18147.20951076 +.00000007 +00000-0 +18511-4 0  9994
2 28480 098.1764 226.0009 0140752 289.3202 122.2097 14.25673585703237
Epoch (UTC): 27 May 2018 05:01:41
Eccentricity: 0.0140752
inclination: 98.1764°
perigee height: 705 km
apogee height: 907 km
right ascension of ascending node: 226.0009°
argument of perigee: 289.3202°
revolutions per day: 14.25673585
mean anomaly at epoch: 122.2097°
orbit number at epoch: 70323

The dashed part of the orbit path shows where the satellite is in the earth's shadow,  

DLR